Yakima, WA

10:07 AM PST on February 19, 2018 (GMT -0800)
Yakima Air Term-McAllister

Weather History for KYKM - July, 2013

Change the Weather History Date:

Monday, July 22, 2013

  Actual Average Record
Temperature  
Mean Temperature 83 °F 72 °F  
Max Temperature 100 °F 90 °F 103 °F (2003)
Min Temperature 66 °F 54 °F 41 °F (1973)
Degree Days  
Heating Degree Days 0 0  
Month to date heating degree days 0 19  
Since 1 June heating degree days 39 117  
Since 1 July heating degree days 0 19  
Cooling Degree Days 18 7  
Month to date cooling degree days 271 127  
Year to date cooling degree days 439 212  
Since 1 June cooling degree days 387 192  
Growing Degree Days 33 (Base 50)    
Moisture  
Dew Point 44 °F    
Average Humidity 31    
Maximum Humidity 49    
Minimum Humidity 12    
Precipitation  
Precipitation 0.00 in 0.01 in 0.12 in (2005)
Month to date precipitation T 0.17  
Year to date precipitation 4.17 4.46  
Snow  
Snow 0.00 in 0.00 in 0.00 in (2002)
Month to date snowfall 0.0 0.0  
Year to date snowfall 1.1 8.6  
Since 1 July snowfall 0.0 0.0  
Snow Depth 0.00 in    
Sea Level Pressure  
Sea Level Pressure 29.83 in    
Wind  
Wind Speed 7 mph (West)    
Max Wind Speed 21 mph    
Max Gust Speed 28 mph    
Visibility 10 miles    
Events      
T = Trace of Precipitation, MM = Missing Value Source: NWS Daily Summary

Daily Weather History Graph

Daily Weather History Graph

Search for Another Location

Airport or City:

Trip Planner

Search our weather history database for the weather conditions in past years. The results will help you decide how hot, cold, wet, or windy it might be!

Date:

Astronomy

Jul. 22, 2013 Rise Set
Actual Time 5:31 AM PDT 8:44 PM PDT
Civil Twilight 4:55 AM PDT 9:21 PM PDT
Nautical Twilight 4:07 AM PDT 10:08 PM PDT
Astronomical Twilight 3:07 AM PDT 11:07 PM PDT
Moon 8:28 PM PDT (7/22) 5:38 AM PDT (7/22)
Length of Visible Light 16h 26m
Length of Day
15h 13m
Full, 100% of the Moon is Illuminated
Jul 22
Full
Jul 29
Last Quarter
Aug 6
New
Aug 14
First Quarter
Aug 20
Full

Hourly Weather History & Observations

Time (PDT) Temp. Dew Point Humidity Pressure Visibility Wind Dir Wind Speed Gust Speed Precip Events Conditions
12:53 AM 75.9 °F 51.1 °F 42% 29.76 in 10.0 mi North 16.1 mph 25.3 mph N/A   Clear
1:53 AM 75.9 °F 50.0 °F 40% 29.77 in 10.0 mi North 9.2 mph - N/A   Clear
2:53 AM 73.0 °F 50.0 °F 44% 29.77 in 10.0 mi SSW 9.2 mph - N/A   Clear
3:53 AM 70.0 °F 48.9 °F 47% 29.79 in 10.0 mi South 3.5 mph - N/A   Clear
4:53 AM 68.0 °F 48.0 °F 49% 29.80 in 10.0 mi SW 9.2 mph - N/A   Clear
5:53 AM 68.0 °F 48.0 °F 49% 29.82 in 10.0 mi WSW 3.5 mph - N/A   Clear
6:53 AM 70.0 °F 48.0 °F 46% 29.84 in 10.0 mi WSW 5.8 mph - N/A   Clear
7:53 AM 73.0 °F 48.9 °F 42% 29.84 in 10.0 mi West 5.8 mph - N/A   Clear
8:53 AM 81.0 °F 50.0 °F 34% 29.85 in 10.0 mi West 8.1 mph - N/A   Clear
9:53 AM 84.0 °F 48.9 °F 29% 29.85 in 10.0 mi WSW 8.1 mph - N/A   Clear
10:53 AM 87.1 °F 48.9 °F 27% 29.85 in 10.0 mi Variable 3.5 mph - N/A   Clear
11:53 AM 91.0 °F 46.0 °F 21% 29.85 in 10.0 mi Variable 3.5 mph - N/A   Clear
12:53 PM 93.9 °F 45.0 °F 18% 29.84 in 10.0 mi SW 8.1 mph - N/A   Clear
1:53 PM 93.9 °F 44.1 °F 18% 29.83 in 10.0 mi SSW 4.6 mph - N/A   Clear
2:53 PM 98.1 °F 43.0 °F 15% 29.83 in 10.0 mi South 4.6 mph - N/A   Clear
3:53 PM 98.1 °F 42.1 °F 15% 29.81 in 10.0 mi Variable 4.6 mph - N/A   Clear
4:53 PM 98.1 °F 39.0 °F 13% 29.81 in 10.0 mi Calm Calm - N/A   Clear
5:53 PM 100.0 °F 39.0 °F 12% 29.80 in 10.0 mi NNW 10.4 mph - N/A   Clear
6:53 PM 95.0 °F 35.1 °F 12% 29.81 in 10.0 mi NNW 19.6 mph 23.0 mph N/A   Clear
7:53 PM 91.0 °F 32.0 °F 12% 29.81 in 10.0 mi NNW 12.7 mph 17.3 mph N/A   Clear
8:53 PM 82.0 °F 33.1 °F 17% 29.83 in 10.0 mi SSW 6.9 mph - N/A   Clear
9:53 PM 82.0 °F 36.0 °F 19% 29.87 in 10.0 mi Variable 5.8 mph - N/A   Clear
10:53 PM 80.1 °F 36.0 °F 20% 29.87 in 10.0 mi WNW 10.4 mph - N/A   Clear
11:53 PM 78.1 °F 37.0 °F 23% 29.89 in 10.0 mi NNW 4.6 mph - N/A   Clear